Date,TemperatureHighF,TemperatureAvgF,TemperatureLowF,DewpointHighF,DewpointAvgF,DewpointLowF,HumidityHigh,HumidityAvg,HumidityLow,PressureMaxIn,PressureMinIn,WindSpeedMaxMPH,WindSpeedAvgMPH,GustSpeedMaxMPH,PrecipitationSumIn
2013-1-1,21,9,-10,19,5,-15,92,86,79,0.00,40.00,12,8,17,0.00
2013-1-2,26,16,6,25,13,3,93,89,79,0.00,40.00,20,10,25,0.00
2013-1-3,15,8,0,12,4,-4,89,83,70,0.00,40.00,17,10,24,0.00
2013-1-4,27,18,12,14,11,7,88,74,55,0.00,40.00,10,6,14,0.00
2013-1-5,23,12,6,14,8,1,91,83,53,0.00,40.00,21,9,26,0.00
2013-1-6,20,12,6,14,9,1,91,88,78,0.00,40.00,24,11,32,0.00
2013-1-7,35,27,20,23,19,14,84,73,61,0.00,40.00,19,8,26,0.00
2013-1-8,33,26,18,28,21,16,93,83,64,0.00,40.00,22,10,29,0.00
2013-1-9,32,28,24,28,20,16,95,71,61,0.00,40.00,22,14,31,0.00
2013-1-10,36,33,29,32,26,19,98,77,52,0.00,40.00,24,19,34,0.00
2013-1-11,34,31,17,34,30,14,98,97,92,0.00,40.00,22,12,28,0.00
2013-1-12,16,6,0,14,1,-6,92,78,63,0.00,40.00,23,16,29,0.00
2013-1-13,8,2,-4,1,-5,-9,80,73,60,0.00,40.00,17,11,24,0.00
2013-1-14,8,2,-5,1,-4,-9,81,76,65,0.00,40.00,15,7,18,0.00
2013-1-15,23,13,4,10,5,0,83,69,54,0.00,40.00,19,12,24,0.00
2013-1-16,35,19,-3,32,14,-11,92,79,59,0.00,40.00,19,13,26,0.00
2013-1-17,19,8,-4,7,-1,-11,72,65,58,0.00,40.00,15,7,21,0.00
2013-1-18,38,27,14,28,21,5,92,77,60,0.00,40.00,24,12,32,0.00
2013-1-19,38,18,-3,28,13,-9,93,78,64,0.00,40.00,37,19,48,0.00
2013-1-20,6,-1,-10,0,-8,-18,75,71,66,0.00,40.00,24,14,32,0.00
2013-1-21,-4,-10,-15,-13,-18,-22,75,69,64,0.00,40.00,24,14,32,0.00
2013-1-22,4,-7,-17,-4,-13,-22,76,73,67,0.00,40.00,11,5,12,0.00
2013-1-23,5,-1,-13,1,-8,-20,84,73,63,0.00,40.00,24,11,33,0.00
2013-1-24,12,-1,-14,3,-10,-20,71,65,59,0.00,40.00,26,13,32,0.00
2013-1-25,17,6,-4,10,-2,-9,77,71,66,0.00,40.00,29,16,38,0.00
2013-1-26,22,8,-7,9,0,-11,78,68,56,0.00,40.00,21,13,29,0.00
2013-1-27,32,28,21,30,21,9,95,75,57,0.00,40.00,23,6,29,0.00
2013-1-28,34,32,31,34,31,30,97,97,95,0.00,40.00,11,5,14,0.00
2013-1-29,31,25,19,30,23,14,97,92,75,0.00,40.00,19,10,28,0.00
2013-1-30,18,8,-3,14,2,-8,82,76,72,0.00,40.00,26,19,32,0.00
2013-1-31,-3,-9,-14,-8,-16,-20,77,71,68,0.00,40.00,30,19,40,0.00
2013-2-1,3,-7,-17,-2,-13,-24,77,72,64,0.00,40.00,13,7,18,0.00
2013-2-2,10,2,-9,5,-4,-15,82,77,67,0.00,40.00,21,6,29,0.00
2013-2-3,18,8,1,5,2,-4,83,75,52,0.00,40.00,21,6,26,0.00
2013-2-4,17,7,-5,14,2,-9,91,77,62,0.00,40.00,21,9,26,0.00
2013-2-5,30,16,4,28,11,0,95,81,65,0.00,40.00,20,11,26,0.00
2013-2-6,29,19,6,21,13,1,85,77,66,0.00,40.00,22,12,30,0.00
2013-2-7,25,21,13,21,18,9,94,86,73,0.00,40.00,15,9,18,0.00
2013-2-8,24,19,8,21,14,5,91,84,68,0.00,40.00,25,14,34,0.00
2013-2-9,31,27,23,30,26,21,97,94,90,0.00,40.00,27,17,38,0.00
2013-2-10,30,27,25,28,25,23,96,92,86,0.00,40.00,26,17,34,0.01
2013-2-11,25,20,11,23,16,7,91,84,71,0.00,40.00,28,19,38,0.01
2013-2-12,29,20,14,18,14,10,92,78,57,0.00,40.00,17,9,22,0.00
2013-2-13,35,27,16,30,23,14,97,87,67,0.00,40.00,13,6,19,0.01
2013-2-14,29,15,0,28,10,-4,96,83,65,0.00,40.00,21,11,24,0.01
2013-2-15,15,4,-4,5,-1,-8,87,78,54,0.00,40.00,14,6,17,0.00
2013-2-16,15,11,7,9,6,5,88,81,72,0.00,40.00,17,8,23,0.00
2013-2-17,31,23,14,27,19,9,89,82,77,0.00,40.00,25,19,34,0.00
2013-2-18,31,13,-3,30,9,-9,95,82,72,0.00,40.00,35,23,46,0.00
2013-2-19,-2,-8,-14,-8,-14,-20,79,74,70,0.00,40.00,31,20,40,0.00
2013-2-20,10,-3,-19,-2,-11,-24,77,67,54,0.00,40.00,14,7,21,0.00
2013-2-21,19,12,4,12,1,-6,72,61,51,0.00,40.00,17,12,24,0.00
2013-2-22,26,19,10,18,15,9,92,85,72,0.00,40.00,19,9,24,0.00
2013-2-23,32,16,6,19,11,3,91,81,49,0.00,40.00,8,3,11,0.00
2013-2-24,24,14,3,18,8,1,90,77,54,0.00,40.00,8,3,9,0.00
2013-2-25,30,19,11,27,17,9,94,91,83,0.00,40.00,9,3,10,0.00
2013-2-26,27,20,15,25,18,12,95,93,84,0.00,40.00,14,6,18,0.00
2013-2-27,22,16,9,19,14,7,93,88,71,0.00,40.00,22,11,30,0.00
2013-2-28,28,23,15,19,18,12,93,79,66,0.00,40.00,10,6,12,0.00
2013-3-1,28,17,7,16,11,5,91,78,58,0.00,40.00,9,7,15,0.00
2013-3-2,23,17,7,14,9,0,90,72,47,0.00,40.00,15,8,18,0.00
2013-3-3,29,24,17,19,14,10,83,67,49,0.00,40.00,27,17,33,0.00
2013-3-4,25,23,22,23,21,19,93,89,85,0.00,40.00,24,18,35,0.00
2013-3-5,28,22,15,23,20,12,94,89,77,0.00,40.00,20,11,27,0.00
2013-3-6,31,19,13,16,14,10,93,81,50,0.00,40.00,11,5,16,0.00
2013-3-7,27,20,13,19,14,10,93,80,60,0.00,40.00,25,14,33,0.00
2013-3-8,36,25,17,30,20,16,93,80,54,0.00,40.00,17,8,24,0.00
2013-3-9,35,32,26,34,32,25,98,97,91,0.00,40.00,17,8,24,0.01
2013-3-10,27,23,16,25,18,12,91,82,71,0.00,40.00,24,15,29,0.01
2013-3-11,24,15,3,16,8,0,85,73,56,0.00,40.00,13,8,16,0.00
2013-3-12,25,20,13,21,15,10,92,81,69,0.00,40.00,29,17,36,0.00
2013-3-13,30,17,4,19,10,1,88,75,38,0.00,40.00,17,8,22,0.00
2013-3-14,42,30,23,27,24,19,93,77,46,0.00,40.00,22,8,29,0.00
2013-3-15,31,29,23,30,27,21,96,92,87,0.00,40.00,16,8,19,0.00
2013-3-16,23,10,2,21,5,-4,95,79,68,0.00,40.00,16,10,18,0.00
2013-3-17,25,12,1,23,5,-6,94,72,63,0.00,40.00,33,17,45,0.00
2013-3-18,31,16,7,30,14,1,99,88,81,0.00,40.00,37,27,48,0.01
2013-3-19,13,7,0,3,-2,-6,82,67,48,0.00,40.00,26,17,32,0.01
2013-3-20,15,7,-2,3,-1,-6,81,70,55,0.00,40.00,22,14,27,0.00
2013-3-21,27,12,0,9,1,-6,78,63,41,0.00,40.00,12,5,13,0.00
2013-3-22,32,18,5,16,8,1,84,68,41,0.00,40.00,9,4,9,0.00
2013-3-23,28,19,11,18,13,7,88,76,59,0.00,40.00,12,8,16,0.00
2013-3-24,32,22,13,27,18,12,94,86,70,0.00,40.00,18,9,25,0.00
2013-3-25,32,25,17,21,18,12,85,74,60,0.00,40.00,19,13,26,0.00
2013-3-26,33,19,8,19,14,5,94,79,57,0.00,40.00,11,6,16,0.00
2013-3-27,35,27,15,21,18,14,95,68,49,0.00,40.00,14,8,18,0.00
2013-3-28,39,34,29,28,24,18,77,67,58,0.00,40.00,19,13,24,0.00
2013-3-29,46,39,33,37,34,28,93,80,61,0.00,40.00,20,12,27,0.00
2013-3-30,46,36,31,37,33,-100,98,90,68,0.00,40.00,23,11,31,0.00
2013-3-31,33,28,19,32,21,10,97,76,59,0.00,40.00,28,18,35,0.00
2013-4-1,28,20,14,16,12,9,85,71,57,0.00,40.00,18,11,24,0.00
2013-4-2,34,24,15,19,15,12,93,71,44,0.00,40.00,9,4,12,0.00
2013-4-3,49,35,22,37,25,14,82,68,57,0.00,40.00,26,16,37,0.00
2013-4-4,44,34,26,34,27,21,93,76,55,0.00,40.00,20,12,25,0.00
2013-4-5,35,30,22,30,24,18,93,79,55,0.00,40.00,25,14,37,0.00
2013-4-6,43,38,32,36,32,28,96,80,70,0.00,40.00,26,15,38,0.00
2013-4-7,43,36,31,39,32,28,97,86,66,0.00,40.00,15,7,19,0.00
2013-4-8,43,38,35,39,35,30,97,90,79,0.00,40.00,19,12,24,0.00
2013-4-9,35,29,24,30,17,12,84,61,43,0.00,40.00,26,17,32,0.00
2013-4-10,36,33,30,27,18,16,88,53,45,0.00,40.00,26,16,31,0.00
2013-4-11,33,30,27,28,27,19,97,89,58,0.00,40.00,24,16,35,0.01
2013-4-12,34,29,26,28,25,21,96,84,63,0.00,40.00,18,10,24,0.01
2013-4-13,44,31,26,27,24,18,96,76,41,0.00,40.00,16,8,21,0.00
2013-4-14,32,30,27,30,26,21,95,86,71,0.00,40.00,34,16,45,0.00
2013-4-15,36,33,31,30,28,27,94,83,71,0.00,40.00,27,8,33,0.00
2013-4-16,36,31,26,27,26,23,91,78,64,0.00,40.00,20,10,27,0.00
2013-4-17,37,33,29,32,28,27,98,82,70,0.00,40.00,16,9,22,0.00
2013-4-18,32,31,29,32,30,28,98,95,89,0.00,40.00,24,15,32,0.05
2013-4-19,33,28,24,28,21,18,97,74,54,0.00,40.00,24,17,30,0.02
2013-4-20,36,27,17,27,18,12,94,69,39,0.00,40.00,16,7,21,0.00
2013-4-21,44,36,29,39,32,27,95,86,71,0.00,40.00,26,17,36,0.00
2013-4-22,34,30,28,30,27,21,96,85,63,0.00,40.00,18,10,23,0.01
2013-4-23,38,29,20,25,19,16,87,69,48,0.00,40.00,16,10,21,0.01
2013-4-24,42,34,27,34,28,23,96,77,56,0.00,40.00,26,13,35,0.01
2013-4-25,49,37,24,30,26,21,92,66,45,0.00,40.00,22,11,30,0.00
2013-4-26,68,52,40,45,37,30,78,57,28,0.00,40.00,21,9,30,0.00
2013-4-27,73,59,46,41,36,32,66,43,27,0.00,40.00,17,11,22,0.00
2013-4-28,73,58,48,48,45,34,84,62,38,0.00,40.00,21,13,26,0.00
2013-4-29,73,55,36,46,35,28,82,50,25,0.00,40.00,17,9,23,0.00
2013-4-30,64,58,45,55,42,30,92,57,29,0.00,40.00,28,18,41,0.00
2013-5-1,44,37,32,32,26,21,77,64,53,0.00,40.00,21,16,31,0.00
2013-5-2,43,35,27,28,25,23,93,68,46,0.00,40.00,26,12,31,0.00
2013-5-3,46,36,24,27,24,21,93,63,39,0.00,40.00,21,11,26,0.00
2013-5-4,40,37,34,37,35,25,97,93,55,0.00,40.00,18,12,22,0.00
2013-5-5,52,43,37,43,40,37,97,87,69,0.00,40.00,9,6,12,0.00
2013-5-6,70,55,41,46,44,41,96,69,41,0.00,40.00,9,4,12,0.00
2013-5-7,78,64,48,48,42,37,88,48,25,0.00,40.00,12,5,21,0.00
2013-5-8,64,59,56,57,52,41,93,78,42,0.00,40.00,13,6,19,0.00
2013-5-9,62,54,46,54,48,36,96,79,62,0.00,40.00,17,11,25,0.00
2013-5-10,68,51,35,50,28,-100,78,49,20,0.00,40.00,26,9,37,0.00
2013-5-11,51,43,36,36,24,-100,85,50,28,0.00,40.00,32,18,43,0.00
2013-5-12,61,46,31,27,21,16,68,39,21,0.00,40.00,18,8,27,0.00
2013-5-13,85,64,46,48,33,19,36,32,25,0.00,40.00,28,15,35,0.00
2013-5-14,95,75,61,52,42,36,48,32,17,0.00,40.00,35,16,44,0.00
2013-5-15,83,67,49,46,43,39,78,45,23,0.00,40.00,19,9,27,0.00
2013-5-16,81,65,55,46,25,-100,54,37,26,0.00,40.00,21,10,27,0.00
2013-5-17,67,61,57,59,45,-100,95,69,31,0.00,40.00,21,11,28,0.00
2013-5-18,80,67,57,66,61,55,95,81,57,0.00,40.00,21,12,28,0.00
2013-5-19,77,68,62,64,63,59,95,82,55,0.00,40.00,22,12,32,0.00
2013-5-20,66,62,58,63,58,52,95,86,60,0.00,40.00,22,10,27,0.00
2013-5-21,60,52,48,57,50,46,95,94,83,0.00,40.00,19,12,27,0.00
2013-5-22,54,49,46,50,46,43,95,88,70,0.00,40.00,24,14,35,0.01
2013-5-23,65,53,44,43,36,28,86,55,27,0.00,40.00,12,7,19,0.00
2013-5-24,67,55,46,50,36,25,84,50,30,0.00,40.00,23,14,29,0.00
2013-5-25,58,55,52,52,49,46,92,78,70,0.00,40.00,22,16,30,0.00
2013-5-26,56,53,50,52,47,43,91,78,70,0.00,40.00,25,14,37,0.00
2013-5-27,64,57,52,54,52,50,96,80,63,0.00,40.00,18,9,24,0.00
2013-5-28,64,58,54,55,54,54,95,88,71,0.00,40.00,12,6,18,0.00
2013-5-29,74,63,55,68,60,54,96,88,73,0.00,40.00,28,12,34,0.00
2013-5-30,77,68,59,66,61,55,95,79,47,0.00,40.00,27,16,36,0.00
2013-5-31,66,61,56,63,54,50,91,77,64,0.00,40.00,27,14,34,0.00
2013-6-1,60,56,52,57,51,43,95,84,67,0.00,40.00,20,11,29,0.00
2013-6-2,68,56,44,45,39,36,87,54,34,0.00,40.00,16,7,23,0.00
2013-6-3,65,58,47,48,42,39,79,57,41,0.00,40.00,17,7,26,0.00
2013-6-4,60,56,52,57,53,43,97,88,52,0.00,40.00,24,14,33,0.01
2013-6-5,66,58,53,55,51,45,97,78,49,0.00,40.00,16,7,22,0.01
2013-6-6,61,54,50,52,49,46,96,82,60,0.00,40.00,12,8,16,0.00
2013-6-7,68,58,49,52,47,43,95,69,43,0.00,40.00,10,5,15,0.00
2013-6-8,67,60,54,52,49,46,88,68,49,0.00,40.00,17,11,24,0.00
2013-7-10,78,74,65,63,58,54,89,58,44,0.00,40.00,11,6,16,0.00
2013-7-11,84,74,64,63,59,55,86,61,46,0.00,40.00,22,12,29,0.00
2013-7-12,90,78,67,72,64,59,74,62,52,0.00,40.00,27,19,35,0.00
2013-7-13,79,74,71,70,67,64,84,77,66,0.00,40.00,17,10,24,0.00
2013-7-14,74,69,65,68,65,63,98,89,73,0.00,40.00,16,8,20,0.00
2013-7-15,84,75,68,70,67,63,98,79,48,0.00,40.00,13,7,18,0.00
2013-7-16,86,79,71,72,69,64,92,72,49,0.00,40.00,17,10,22,0.00
2013-7-17,88,80,72,73,69,66,84,68,51,0.00,40.00,14,9,21,0.00
2013-7-18,89,81,72,73,71,68,89,71,51,0.00,40.00,20,12,28,0.00
2013-7-19,81,75,66,72,64,61,85,69,49,0.00,40.00,17,9,26,0.00
2013-7-22,77,71,60,66,59,55,85,64,55,0.00,40.00,20,13,29,0.00
2013-7-23,76,64,54,57,54,50,97,73,45,0.00,40.00,9,5,17,0.00
2013-7-24,80,68,59,61,57,54,93,69,43,0.00,40.00,9,5,15,0.00
2013-7-25,78,67,57,64,60,55,97,80,52,0.00,40.00,13,5,18,0.00
2013-7-26,67,60,55,57,52,46,94,74,48,0.00,40.00,19,11,27,0.00
2013-7-27,69,58,47,50,46,41,91,67,40,0.00,40.00,18,-3,26,0.00
2013-7-28,73,60,47,57,48,45,92,64,40,0.00,40.00,15,6,23,0.00
2013-7-29,72,64,57,61,54,50,96,72,48,0.00,40.00,12,7,18,0.00
2013-7-30,76,66,61,64,61,59,98,84,61,0.00,40.00,9,4,14,0.00
2013-7-31,77,68,56,63,57,50,98,72,43,0.00,40.00,16,7,24,0.00
2013-8-1,80,66,55,59,54,50,88,66,40,0.00,40.00,11,-17,14,0.00
2013-8-2,75,64,52,57,53,48,96,69,40,0.00,40.00,10,4,16,0.00
2013-8-3,77,63,51,57,50,43,94,67,33,0.00,40.00,14,5,18,0.00
2013-8-4,73,63,54,57,52,48,85,66,43,0.00,40.00,12,-6,19,0.00
2013-8-5,77,68,61,66,62,57,98,83,62,0.00,40.00,16,7,20,0.00
2013-8-6,82,66,58,66,61,55,98,83,54,0.00,40.00,16,-12,22,0.00
2013-8-7,76,66,58,63,54,46,99,69,42,0.00,40.00,11,5,17,0.00
2013-8-8,76,66,59,61,57,52,86,72,54,0.00,40.00,8,5,12,0.00
2013-8-9,73,63,54,55,52,48,96,69,42,0.00,40.00,16,-26,26,0.00
2013-8-10,75,65,49,57,54,48,97,67,44,0.00,40.00,7,3,14,0.00
2013-8-11,80,69,60,61,58,55,94,70,45,0.00,40.00,9,5,12,0.00
2013-10-11,-200,0,200,-100,-100,-100,101,101,100,0.00,40.00,27,20,39,0.00
2013-10-12,-200,0,200,-100,-100,-100,101,100,100,0.00,40.00,22,13,31,0.00
2013-10-13,-200,0,200,-100,-100,-100,101,101,100,0.00,40.00,6,5,9,0.00
2013-10-23,33,33,33,25,25,25,73,73,73,0.00,40.00,9,9,14,0.00
2013-10-24,33,33,33,28,28,28,83,83,83,0.00,40.00,5,5,7,0.00
2013-10-26,43,33,34,28,6,-100,79,52,53,0.00,40.00,21,17,29,0.00
2013-10-27,29,29,29,25,25,25,81,81,81,0.00,40.00,11,11,16,0.00
2013-10-28,39,39,39,21,21,21,46,46,46,0.00,40.00,9,9,14,0.00
2013-11-8,29,29,29,27,27,27,87,87,87,0.00,40.00,12,12,19,0.00
2013-11-9,-200,0,200,-100,-100,-100,0,0,100,0.00,40.00,19,19,30,0.00
2013-11-10,35,31,25,28,25,23,91,81,68,0.00,40.00,14,8,22,0.00
2013-11-11,18,18,18,10,10,10,72,72,72,0.00,40.00,18,18,24,0.00
2013-11-13,39,39,39,30,30,30,73,73,73,0.00,40.00,3,3,4,0.00
2013-11-14,36,36,36,30,30,30,82,82,82,0.00,40.00,3,3,3,0.00
2013-11-30,-200,0,200,-100,-100,-100,0,0,100,0.00,40.00,2,2,4,0.00
2013-12-4,25,25,25,23,23,23,94,94,94,0.00,40.00,6,6,7,0.00
2013-12-5,4,4,4,1,1,1,85,85,85,0.00,40.00,0,-999,0,0.00